Wind_Speed
3 2 3 3 4 5 5 3 3 3 2 4 5 5 7 7 7 6 3 3 2 4 4 1 1 5 8 9 11 11 9 11 11 12 13 14 16 17 20 21 22 24 25 26 27 26 24 23 22 20 18 16 14 13 11 9 8 8 8 8 9 12 15 17 20 21 23 25 27 28 29 30 30 30 29 28 26 23 21 20 19 19 19 19 20 20
2 3 5 4 4 5 4 2 1 1 1 3 4 5 5 5 7 5 3 3 2 2 1 3 1 5 8 8 10 10 9 10 9 11 13 15 17 18 20 21 22 22 23 25 25 23 21 20 18 17 15 13 11 11 9 8 10 10 11 13 15 19 21 22 24 26 27 29 30 31 32 31 30 29 27 25 24 22 20 19 18 18 18 18 18 19
3 5 5 6 3 3 1 1 1 2 2 3 3 5 5 4 6 4 1 2 2 2 2 2 2 3 8 8 11 12 10 10 10 11 13 15 17 18 18 19 20 20 20 22 22 20 19 17 16 14 13 12 11 11 11 11 12 14 16 19 22 24 25 26 28 29 30 31 32 32 31 29 27 25 24 22 21 20 20 19 18 18 18 18 18 18
4 5 5 5 2 3 2 3 3 3 1 3 4 4 5 5 6 4 1 2 1 4 4 2 3 2 7 7 11 12 11 12 12 14 14 14 16 17 17 17 18 18 19 20 20 18 17 15 14 13 13 12 12 12 13 15 16 19 22 25 27 28 29 29 31 32 33 34 33 32 29 26 24 22 21 21 20 20 19 19 19 19 19 19 18 18
6 3 5 3 1 4 5 6 7 5 4 4 3 3 6 7 7 6 6 8 5 4 2 4 5 2 5 6 8 9 11 12 12 14 15 15 15 15 16 16 16 17 17 18 18 16 15 13 13 13 13 12 13 14 16 18 21 24 26 28 29 30 31 32 34 35 35 34 32 30 27 25 22 21 21 20 20 20 20 20 19 19 19 20 19 18
6 3 5 4 4 6 5 7 8 6 6 4 3 3 6 7 8 10 10 10 7 2 2 3 7 1 5 6 6 6 8 10 10 12 13 14 14 14 15 15 15 16 17 17 16 15 13 13 13 12 13 13 15 17 19 22 24 26 28 29 29 31 32 34 36 37 35 33 31 29 27 26 24 23 22 22 21 21 21 20 20 19 19 20 20 19
4 3 3 5 5 6 7 6 6 5 7 5 2 2 5 7 9 11 9 7 6 5 1 1 6 3 3 6 6 5 7 8 9 10 11 11 12 12 12 12 13 14 15 15 14 13 12 12 12 12 14 15 17 19 21 23 25 27 28 29 30 32 34 36 38 38 35 32 29 28 26 25 25 24 23 23 22 22 21 20 20 20 20 20 20 20
4 6 6 7 6 7 9 7 6 5 6 4 1 3 7 9 10 8 7 5 4 6 2 3 5 6 2 4 5 5 7 7 7 8 9 10 10 11 11 11 12 12 12 13 12 11 11 11 12 13 14 16 17 20 22 24 26 27 29 30 32 33 35 37 39 37 33 30 28 27 25 24 23 23 23 22 22 22 22 21 20 20 20 20 20 20
4 8 8 8 9 9 7 7 6 5 4 3 2 6 8 8 6 5 5 4 3 5 2 2 3 6 3 3 4 3 4 5 6 7 7 9 10 10 11 11 11 11 10 10 10 9 10 11 13 15 16 18 20 22 24 25 26 27 29 31 32 33 36 38 39 35 31 29 27 26 24 23 23 22 22 22 22 22 22 22 21 21 20 20 20 20
3 4 4 6 8 8 7 7 4 2 4 5 6 9 6 2 1 2 3 2 2 2 3 7 6 5 3 2 4 1 1 2 5 6 6 9 9 9 10 9 10 10 9 8 7 8 9 11 14 18 19 20 21 22 23 24 26 27 29 31 33 34 36 39 37 33 29 27 26 25 24 23 23 22 22 22 22 22 22 22 22 22 21 21 21 21
1 2 2 4 6 5 8 5 1 1 5 8 9 8 3 3 2 1 0 1 2 1 5 7 6 4 5 2 4 3 3 1 5 5 6 8 8 8 8 8 7 7 6 6 6 8 9 12 15 19 20 20 20 20 21 23 25 28 30 31 32 35 37 38 35 30 28 26 25 25 24 23 23 22 22 22 22 23 23 23 22 22 23 23 23 23
3 3 3 3 7 7 7 2 2 3 6 6 6 8 4 0 1 1 1 0 3 4 4 5 5 5 6 2 6 8 6 4 5 5 6 7 7 7 7 6 5 4 4 6 9 10 12 15 17 19 20 20 20 20 21 22 25 28 29 30 32 35 37 36 32 28 26 25 25 24 23 23 23 23 22 22 23 23 23 24 24 24 24 24 24 25
3 5 2 2 5 11 7 3 3 1 5 8 7 8 7 5 3 3 3 3 4 4 3 5 6 5 2 5 9 10 9 8 8 8 7 7 7 7 5 3 2 2 4 6 9 12 15 17 18 20 21 21 21 21 21 23 26 28 30 31 33 35 34 31 28 25 24 23 23 23 23 22 22 22 22 22 23 23 24 24 25 25 25 26 26 26
2 4 5 3 3 12 11 7 5 4 7 10 8 8 7 5 5 5 6 6 6 5 4 5 5 3 1 6 9 10 11 12 13 13 11 10 7 5 2 0 2 3 3 5 8 12 15 17 19 20 21 21 21 21 22 25 27 29 31 33 34 33 30 27 24 24 23 22 22 22 21 21 21 21 21 22 23 23 23 24 24 25 26 26 27 27
2 2 8 8 5 11 11 7 4 4 5 6 5 6 6 5 4 5 7 8 9 10 8 5 3 4 3 4 8 10 12 14 14 13 12 10 6 2 1 3 6 7 6 8 11 13 16 17 19 20 20 20 20 21 23 25 28 31 33 34 33 29 26 23 22 22 22 21 21 21 21 20 20 20 21 21 22 23 23 24 24 25 26 26 27 28
2 3 4 4 3 7 8 4 5 5 3 5 4 4 6 4 2 4 6 5 7 9 6 2 2 4 4 4 6 6 8 9 10 10 10 8 5 2 3 5 8 10 11 12 15 16 17 18 19 20 20 19 20 22 24 26 30 33 34 33 30 26 23 22 22 21 21 21 20 20 20 19 20 20 21 21 22 23 23 24 25 25 26 26 27 28
2 3 4 2 3 6 6 5 8 7 4 3 5 6 6 3 2 3 4 3 4 6 5 3 3 3 3 3 3 2 2 4 5 4 4 2 2 1 3 5 8 11 13 16 17 18 19 19 19 20 19 19 20 23 26 29 32 34 34 32 27 24 22 22 22 21 21 21 20 20 20 20 20 21 21 22 23 24 24 24 25 26 26 26 27 28
2 1 4 3 4 5 3 3 11 13 6 3 5 7 6 2 2 2 3 3 5 6 6 5 4 4 2 1 1 3 5 4 3 3 4 4 3 2 3 5 7 11 14 17 18 19 20 20 20 20 19 20 21 23 28 31 34 36 34 30 26 23 22 22 22 22 21 21 21 20 20 20 20 21 22 23 24 24 24 25 25 26 27 27 27 28
3 2 3 2 2 3 1 1 5 12 12 7 3 5 4 0 1 3 2 4 6 6 7 3 4 2 1 1 2 5 7 8 7 7 8 9 7 6 5 7 7 8 12 17 19 20 21 21 21 20 19 20 22 25 29 33 36 36 31 27 24 23 22 22 22 22 21 21 21 20 20 20 21 21 22 23 24 25 25 25 26 26 27 27 28 28
2 2 3 2 1 1 2 4 4 7 9 6 2 4 4 1 2 3 2 3 4 5 7 6 3 2 2 2 4 6 8 9 9 8 9 9 8 7 7 7 8 8 11 16 19 21 22 22 21 21 20 21 24 27 32 36 36 34 29 25 24 22 22 22 22 22 22 21 21 21 21 21 21 22 23 23 24 25 25 26 26 27 28 28 28 29
2 1 3 3 3 0 2 5 5 6 6 5 5 6 5 2 1 1 1 1 3 4 5 7 8 4 3 4 6 9 9 10 10 8 7 7 7 7 8 8 10 11 11 14 19 21 22 22 22 21 21 23 27 30 34 35 34 32 29 25 24 23 23 23 22 22 22 22 22 22 23 22 23 23 23 24 24 25 26 26 26 27 28 28 29 29
2 1 3 3 3 3 3 3 3 5 7 6 5 4 4 3 1 2 1 1 1 4 4 6 9 5 3 5 7 9 9 10 10 8 7 7 8 8 9 9 10 12 12 15 19 21 22 23 22 21 22 25 28 32 34 34 33 32 29 26 25 24 23 23 23 23 23 23 23 23 23 23 23 23 24 24 25 25 26 26 27 27 28 29 29 29
2 1 2 2 3 3 5 3 1 3 8 7 4 3 2 2 2 3 4 2 2 3 2 5 7 3 3 7 9 9 9 10 10 9 9 10 10 10 10 11 11 12 14 17 20 22 23 24 23 22 23 25 29 33 35 34 33 32 29 26 25 25 24 24 24 23 23 23 23 23 24 24 24 24 25 25 25 25 26 26 27 27 28 29 29 29
1 1 2 1 2 3 6 3 1 2 4 5 3 3 2 2 2 3 3 3 3 3 2 4 6 3 3 7 10 9 10 10 11 11 12 12 12 12 13 14 13 13 15 18 21 22 24 24 22 21 22 25 30 35 36 35 34 32 28 26 25 25 25 24 24 23 23 23 24 24 24 24 25 25 25 25 25 26 26 26 27 28 29 29 30 30
1 1 3 2 1 1 3 2 2 2 2 3 2 3 4 3 3 3 2 2 3 2 0 4 7 4 2 6 8 8 10 11 13 14 14 14 15 15 16 17 17 15 16 18 21 22 23 23 21 19 21 26 33 36 34 33 33 31 27 26 25 25 25 24 24 23 23 24 24 24 24 25 25 25 26 26 26 26 26 27 28 28 29 29 30 30
2 1 2 1 2 2 2 3 3 2 2 1 0 2 4 3 3 2 2 4 4 1 1 5 9 7 2 3 5 7 9 11 13 14 14 15 16 17 18 19 20 20 18 17 20 22 23 23 21 20 24 30 35 35 33 32 32 29 26 25 25 24 24 24 23 23 23 23 24 24 24 25 25 26 26 26 27 27 27 28 29 29 30 30 30 30
2 1 2 0 2 3 4 5 4 4 5 4 1 2 4 4 3 3 4 4 4 4 5 7 8 11 12 10 10 9 8 9 12 14 14 16 17 18 20 21 22 23 19 17 20 23 23 23 22 23 27 33 34 33 32 32 30 27 25 24 24 23 23 23 23 22 22 23 24 24 25 25 25 26 27 27 27 28 28 29 29 30 30 31 31 31
2 1 2 1 5 6 6 8 6 3 7 7 3 4 6 5 3 4 5 5 2 4 7 6 6 12 16 14 14 14 11 8 11 15 16 17 19 19 21 24 25 25 22 19 22 24 24 23 23 25 30 33 33 31 31 31 29 26 25 24 23 23 22 22 22 22 22 23 24 24 25 25 26 26 26 27 27 28 28 29 30 30 31 31 31 31
1 1 1 1 5 8 8 8 6 4 7 7 6 7 7 6 7 7 7 6 5 6 9 10 12 15 16 15 15 13 10 9 12 16 18 19 20 22 24 26 26 26 25 23 21 22 23 24 24 27 31 32 31 31 31 30 27 25 25 24 23 22 22 22 22 22 22 23 23 24 25 25 26 26 26 27 27 28 29 29 30 30 30 30 30 31
1 1 2 1 5 9 7 4 4 5 7 7 8 10 9 8 9 9 9 9 9 12 15 16 18 19 15 14 14 10 9 12 14 17 19 22 24 25 26 27 27 28 26 21 19 20 22 24 26 30 32 31 30 30 30 28 26 25 25 24 23 22 21 22 22 22 22 23 23 24 25 26 26 26 26 27 27 28 29 29 30 30 30 30 30 30
1 1 2 1 3 6 3 3 3 6 8 10 10 10 9 9 10 10 9 8 9 12 15 15 17 16 11 8 9 9 11 14 17 19 22 25 25 26 27 28 30 29 24 19 19 20 22 24 29 32 32 31 30 30 29 27 26 25 25 24 23 22 22 22 22 22 22 23 24 25 25 26 26 26 26 27 27 28 29 29 30 30 31 30 30 31
2 1 2 1 3 3 3 2 7 6 7 10 10 11 12 11 9 8 7 7 8 10 12 12 12 11 7 6 8 12 15 19 22 23 26 27 25 25 28 30 31 27 23 22 22 22 23 28 31 32 31 30 30 29 28 26 25 25 25 24 23 22 22 22 22 23 23 23 24 25 25 26 26 26 26 26 27 28 29 29 30 30 31 31 31 31
1 1 1 0 4 2 2 5 9 5 4 6 5 9 13 12 10 9 9 10 12 10 9 9 10 10 13 14 13 15 19 22 24 25 26 27 27 27 29 30 28 25 24 24 23 24 28 31 32 31 30 30 29 28 27 25 25 25 25 24 23 23 22 23 22 23 23 23 24 24 24 25 25 25 25 26 27 27 28 29 29 29 30 31 31 31
1 1 1 0 3 2 3 8 7 3 3 3 2 4 9 10 10 12 12 12 12 11 10 12 13 15 16 15 14 17 22 24 27 28 28 28 28 29 30 29 26 25 25 24 24 27 30 31 30 30 30 30 29 27 26 25 25 25 25 24 24 23 23 23 23 23 23 23 23 23 24 24 24 25 25 26 27 28 28 29 29 29 30 31 31 31
1 0 1 0 2 3 5 7 4 3 2 1 3 4 6 6 7 11 16 17 16 16 16 16 17 17 16 17 19 23 27 28 29 30 29 28 27 27 27 26 25 25 24 24 26 29 30 30 30 30 30 29 28 27 25 25 25 25 25 24 24 23 23 23 23 23 23 23 23 23 23 24 24 25 26 26 27 28 28 29 29 29 30 31 31 32
1 1 1 0 1 2 3 3 2 6 6 1 4 4 5 5 5 8 14 14 14 14 14 15 16 16 16 20 23 25 28 30 31 31 29 25 23 24 24 23 22 24 25 26 28 29 30 30 30 30 29 28 27 26 25 25 25 25 25 24 23 23 22 23 23 23 23 23 23 22 22 23 25 25 26 26 27 28 28 28 29 29 30 31 31 32
1 2 1 1 1 1 4 3 5 9 9 2 3 4 4 3 2 3 9 10 8 10 12 13 13 13 17 23 25 25 27 27 26 25 21 18 18 21 22 22 22 24 26 28 30 30 31 31 30 30 30 28 27 26 25 25 25 25 25 24 23 23 22 23 23 23 23 23 22 22 22 23 24 25 26 26 27 27 28 28 28 28 29 31 32 32
1 0 1 2 1 1 2 5 4 5 5 0 2 4 5 2 1 2 5 10 6 8 11 10 10 13 19 24 25 24 23 20 16 12 10 14 20 21 20 21 23 25 28 30 31 32 33 32 30 30 30 29 27 25 24 25 25 25 25 24 23 23 23 23 23 23 23 23 22 22 22 23 24 25 26 26 26 27 27 27 28 28 29 30 31 32
2 1 1 2 2 1 2 4 3 4 5 1 4 7 5 3 4 3 5 8 2 8 10 10 11 15 18 22 25 22 17 12 11 11 13 19 25 23 22 24 26 28 32 34 34 34 33 32 31 30 30 28 27 25 24 25 25 25 25 24 23 23 23 23 23 23 23 22 22 21 22 23 24 25 25 26 26 26 27 27 27 28 29 30 31 31
2 1 0 3 3 2 3 3 3 5 6 1 7 8 6 6 6 2 8 6 4 8 10 10 13 16 17 22 24 18 12 12 15 23 27 28 28 26 26 28 30 32 35 35 35 34 33 32 31 31 30 28 26 25 25 25 25 25 24 24 24 23 23 23 24 23 23 22 21 21 22 23 24 25 25 26 26 26 26 26 27 28 29 30 30 30
1 1 1 2 2 3 4 4 4 5 6 4 8 10 10 8 4 5 6 2 3 6 9 10 15 17 19 25 26 21 21 25 28 34 36 32 29 28 26 25 29 35 36 36 35 33 31 32 32 31 30 27 25 25 25 25 26 25 25 25 24 23 23 24 24 24 23 23 22 22 22 22 24 25 25 25 26 26 26 26 27 28 29 30 29 29
1 1 1 1 1 2 3 3 4 5 4 6 10 11 10 5 4 6 7 9 9 12 13 14 17 18 21 28 31 29 31 33 34 35 35 31 29 28 26 23 26 33 38 36 34 32 31 31 32 31 29 27 25 25 25 25 26 25 25 26 24 23 23 25 25 24 24 23 22 22 22 22 23 24 25 25 26 27 26 25 26 27 29 29 29 29
2 1 2 2 2 2 1 2 4 7 3 13 13 7 8 8 10 14 18 19 16 16 17 17 18 20 24 28 29 28 30 32 34 34 32 30 28 27 25 23 21 28 36 36 32 31 31 31 32 31 29 26 25 24 24 25 26 26 26 26 24 23 24 25 25 25 24 23 22 22 22 23 23 24 25 25 26 26 26 26 26 27 28 29 29 30
4 3 2 2 3 2 2 4 2 3 5 18 15 6 10 17 25 29 26 22 19 18 18 19 21 24 26 26 25 26 30 33 35 31 28 27 25 23 23 22 19 25 35 36 32 31 31 31 31 31 29 26 25 24 24 25 26 26 26 25 23 23 25 25 25 26 25 23 23 23 23 23 23 23 24 25 26 26 26 26 26 27 28 28 29 29
6 6 2 2 4 4 5 9 10 11 10 15 20 23 27 32 37 35 28 25 25 24 21 22 27 30 29 26 27 30 32 33 32 29 26 26 25 23 24 22 22 28 35 34 32 31 30 30 31 30 29 27 24 24 25 25 26 27 26 24 24 24 25 26 26 26 25 24 23 23 23 24 23 23 23 24 25 26 26 26 26 27 27 28 28 28
7 7 3 1 2 6 14 21 25 28 30 29 30 33 35 37 37 35 32 31 30 28 26 27 31 34 32 31 32 34 35 34 32 28 25 24 25 25 26 25 26 33 37 33 31 30 29 30 30 29 29 27 24 24 25 25 26 27 26 25 25 25 26 26 27 26 25 24 24 23 24 24 24 24 24 24 24 26 26 26 27 27 27 27 27 28
6 8 6 4 2 3 8 11 13 20 28 31 32 35 35 35 34 33 33 33 32 31 30 31 33 35 35 35 36 36 36 34 30 26 23 25 28 29 30 31 33 37 36 32 30 29 28 29 29 28 28 27 24 24 24 25 25 25 25 25 25 25 26 27 27 27 26 25 25 24 24 25 25 25 25 24 24 25 25 25 26 27 27 27 27 27
4 7 6 7 7 7 10 13 17 29 36 34 32 32 30 29 30 30 30 30 31 32 33 34 35 35 36 37 36 35 34 31 27 24 26 30 32 32 35 38 39 38 34 31 30 29 28 28 28 28 27 27 25 24 24 25 24 23 24 24 24 25 26 27 26 27 26 25 25 25 25 25 26 26 26 26 25 25 25 25 26 27 27 26 26 27
5 5 4 4 6 10 14 17 21 26 27 23 21 23 26 28 28 28 29 29 31 34 36 36 36 35 37 39 39 38 36 31 25 24 27 30 33 35 38 40 39 36 33 31 30 28 27 27 27 27 27 26 25 25 25 25 24 23 22 23 23 24 26 27 26 26 26 25 25 25 25 26 26 26 27 27 27 26 25 24 25 26 28 27 24 25
6 4 4 2 4 7 8 10 12 12 14 20 27 31 33 33 30 30 33 34 35 36 35 36 38 39 38 39 37 34 32 30 27 27 30 33 36 39 39 38 36 34 31 29 29 28 26 26 25 26 26 26 25 25 25 25 23 22 22 22 23 24 26 27 27 27 25 25 25 25 26 26 26 27 27 28 28 28 28 25 23 23 26 28 26 24
14 10 8 7 7 10 15 21 21 17 18 29 38 39 36 35 34 35 36 36 36 36 35 36 38 40 40 40 35 27 26 30 32 33 35 38 39 40 38 36 34 32 30 28 28 27 26 24 24 25 25 25 25 25 25 24 23 22 21 21 22 24 25 26 27 27 25 25 25 25 26 27 27 27 27 27 28 29 30 29 27 23 22 24 25 25
Wind_Direction
340 18 59 28 5 347 343 331 306 307 282 275 277 275 286 293 295 303 329 45 28 287 276 285 36 43 31 23 26 31 61 84 97 107 107 110 107 101 103 102 100 98 101 111 114 114 114 113 111 110 106 104 103 97 90 86 72 54 36 16 2 357 353 348 343 338 334 331 328 328 326 327 327 325 324 324 323 321 318 315 313 310 308 306 304 301
345 56 46 7 344 335 336 337 304 279 298 295 289 297 299 289 300 317 345 14 33 276 298 125 130 59 49 33 35 41 59 71 87 109 110 109 105 103 104 102 101 100 104 110 110 109 109 106 105 102 98 94 90 78 64 54 38 23 13 4 360 357 353 348 343 338 335 332 331 331 330 330 330 328 327 326 324 323 320 318 315 312 310 307 306 303
65 65 27 353 329 306 337 82 341 304 308 313 314 303 309 325 313 310 82 62 84 274 304 147 234 68 71 53 48 49 56 65 75 99 108 107 106 105 105 105 105 102 101 105 105 104 103 99 98 92 85 76 66 56 43 31 20 10 4 1 359 355 350 344 339 335 333 331 331 331 330 330 329 327 325 323 322 321 319 318 316 314 313 311 310 309
56 47 3 345 318 302 343 46 353 313 314 325 332 310 316 353 333 312 42 32 234 255 292 306 267 117 94 76 64 58 64 76 79 88 94 101 107 107 106 106 106 102 98 100 100 99 97 92 87 78 67 57 46 37 27 17 10 5 3 359 355 350 345 340 336 334 332 330 330 330 329 329 328 326 324 322 319 318 317 316 315 315 314 314 315 314
68 24 328 310 319 342 354 31 17 347 356 349 353 339 323 337 326 303 314 317 284 226 244 296 272 182 95 70 74 71 74 82 86 90 91 97 107 108 104 100 99 100 99 99 97 94 90 82 73 63 52 41 30 23 17 12 7 4 360 354 349 344 340 337 334 333 332 331 330 329 328 327 325 324 321 319 317 316 317 316 316 316 316 316 316 314
66 9 331 333 355 14 24 40 27 348 337 350 44 15 326 324 314 300 310 317 301 248 107 319 298 280 96 71 73 83 82 84 89 97 100 104 110 108 101 97 97 100 101 100 96 89 80 70 60 50 39 28 21 16 11 7 4 359 352 346 342 338 336 335 334 333 332 331 330 329 329 329 328 328 326 324 322 320 320 319 318 318 317 316 316 315
46 4 351 358 3 30 43 46 32 349 329 345 44 350 303 303 302 301 316 319 305 323 26 277 300 293 112 79 73 89 95 96 97 103 110 113 114 108 100 98 98 99 99 98 91 82 71 59 46 34 25 17 12 9 5 1 356 350 342 337 335 334 334 334 334 333 331 330 329 329 330 331 331 331 331 329 327 326 324 323 321 320 319 319 318 317
8 11 20 17 22 34 29 17 14 355 328 344 36 304 297 297 299 310 316 296 297 319 287 208 279 282 269 77 85 101 103 112 118 116 117 115 115 108 99 98 97 96 97 93 83 73 59 44 30 19 11 5 0 358 356 353 347 341 335 333 332 333 333 334 333 332 329 328 328 328 329 330 330 330 329 327 326 325 323 323 321 319 319 318 317 316
16 21 18 13 28 32 12 343 337 329 315 342 341 292 290 294 301 308 299 283 301 312 321 44 334 290 286 100 122 141 124 131 134 125 121 118 114 106 99 99 98 97 95 87 75 60 42 28 17 7 358 353 350 350 348 344 338 333 331 330 330 331 332 333 331 329 326 325 325 326 327 328 328 327 327 325 324 322 321 321 320 318 317 316 315 315
42 37 14 8 28 17 340 324 325 331 324 318 297 281 263 239 269 280 299 298 270 277 17 10 347 310 318 100 134 190 199 159 143 127 122 122 113 104 103 100 98 95 87 73 56 38 26 16 6 357 349 344 343 341 338 333 328 326 326 327 328 330 331 331 328 325 323 322 322 323 324 325 325 324 324 323 322 321 320 319 319 320 319 319 317 316
108 115 64 39 34 339 302 319 38 215 293 289 289 292 255 162 153 192 101 265 270 31 41 5 352 323 320 55 90 16 351 113 145 133 125 123 110 102 102 98 97 89 70 46 21 11 6 360 354 348 340 334 331 328 324 321 321 322 323 326 327 328 329 327 324 321 320 320 320 321 322 323 324 323 323 322 321 320 320 320 320 321 321 321 320 319
111 98 78 61 31 349 292 301 98 214 279 300 324 340 339 350 152 187 127 94 329 6 48 24 2 302 295 23 42 18 25 76 123 122 121 120 106 97 94 93 98 73 34 14 -0 352 345 342 340 334 327 321 315 312 312 314 317 320 322 324 326 326 325 323 320 318 319 319 319 320 321 323 323 323 323 322 322 321 322 322 322 322 322 321 322 321
97 94 57 168 43 7 340 351 44 250 336 2 8 4 1 356 0 349 357 0 336 351 39 18 351 302 294 53 24 21 46 61 70 74 74 80 85 93 95 93 93 26 6 359 352 344 335 328 323 318 312 309 307 306 311 316 320 323 325 326 327 325 322 320 317 317 319 320 320 320 321 323 323 323 323 323 323 323 323 324 323 324 324 323 323 322
84 117 26 32 27 1 6 24 23 0 8 17 12 9 13 3 353 345 349 346 323 326 343 338 331 304 96 60 29 35 55 54 55 56 52 55 68 92 106 343 284 292 312 322 325 327 325 318 310 306 304 304 305 308 315 321 324 327 329 329 328 325 321 318 317 318 319 320 320 320 321 322 322 322 323 322 322 322 323 323 324 324 324 323 323 321
20 90 19 22 359 352 15 35 354 312 358 24 7 5 28 26 2 339 338 339 322 316 318 311 332 349 359 39 42 52 60 54 52 52 51 54 59 61 282 281 279 275 275 286 297 305 309 307 302 299 299 302 306 312 319 325 329 331 331 330 327 324 319 318 318 319 319 319 319 319 320 321 322 322 322 321 320 321 322 323 324 323 323 322 321 320
4 84 43 45 22 1 19 22 317 294 0 27 357 0 22 14 331 306 312 309 299 307 322 351 47 41 57 80 72 70 70 65 61 58 59 60 58 28 285 276 278 280 278 281 289 294 298 299 297 296 298 302 310 318 324 329 332 332 332 329 326 323 320 319 319 319 318 319 319 319 320 321 322 322 321 321 320 322 323 324 323 322 321 321 320 318
3 79 68 72 83 41 28 28 18 3 338 355 13 7 354 319 252 307 303 263 279 303 325 357 21 60 101 123 118 134 125 95 85 72 73 72 63 24 310 285 279 283 283 284 287 290 293 294 294 295 298 304 313 322 328 331 332 332 332 328 325 323 322 321 321 320 320 320 320 321 322 323 323 322 322 321 321 322 323 323 322 321 320 320 319 318
333 20 64 40 45 46 36 65 52 37 14 4 22 354 323 247 178 348 325 315 329 318 316 344 45 52 33 79 145 218 222 188 172 193 208 216 215 229 318 319 295 284 280 283 286 287 289 291 291 294 298 305 316 324 328 331 332 333 331 327 325 324 323 322 321 320 320 320 321 322 322 322 322 322 322 321 321 322 322 321 321 320 319 320 320 320
316 316 95 76 19 23 5 79 63 52 53 62 36 336 331 321 308 348 346 330 333 321 317 336 117 107 353 352 301 257 231 216 214 217 220 220 215 227 286 328 329 300 280 283 288 286 286 287 288 292 297 306 316 323 327 330 331 330 328 324 323 322 321 320 319 319 319 320 321 322 322 322 323 322 321 321 322 322 322 322 322 321 321 322 322 322
293 349 71 79 18 302 0 26 25 38 51 63 45 4 10 357 318 345 346 310 318 316 316 315 296 272 207 225 271 249 221 216 219 222 225 222 219 237 272 305 321 308 285 287 290 285 283 282 283 290 298 306 315 321 325 328 329 329 328 325 322 321 320 319 320 320 320 323 323 324 324 324 324 324 323 322 322 323 322 322 322 322 322 322 322 321
264 4 5 10 30 317 24 35 26 24 25 11 17 24 5 339 310 311 278 271 318 307 302 309 308 288 186 193 232 227 217 216 222 230 233 227 231 252 268 282 298 298 284 287 291 284 278 279 282 289 299 308 317 324 329 331 331 330 329 326 323 323 322 321 322 322 323 324 325 325 325 325 325 325 323 323 322 322 322 321 322 321 321 321 321 321
340 4 335 343 19 64 87 49 18 55 61 34 17 15 347 343 335 316 355 93 283 287 284 294 297 286 180 179 212 222 222 223 228 235 239 239 246 259 268 276 291 295 288 287 290 285 278 278 283 290 301 313 322 329 332 330 329 329 327 324 323 323 323 322 322 323 323 324 324 325 324 324 324 323 322 321 321 321 321 320 321 321 320 320 321 321
340 317 323 346 19 61 100 90 0 100 95 79 53 27 343 331 328 327 339 343 282 267 255 265 274 283 141 174 209 224 222 226 229 231 239 249 253 253 262 277 287 292 297 297 293 288 282 280 285 293 306 318 326 329 328 325 325 326 325 323 322 322 321 321 321 322 323 323 323 323 322 322 322 321 320 320 320 320 320 320 321 321 321 321 321 321
329 340 336 346 69 116 138 137 237 186 110 82 64 37 0 309 292 299 317 334 300 265 271 277 271 283 142 186 214 223 223 229 232 236 247 255 259 263 271 283 287 284 292 300 296 288 283 283 287 296 308 319 324 324 321 320 322 324 323 322 321 321 320 320 321 322 322 321 321 321 321 322 321 320 320 320 320 321 320 321 321 321 321 321 320 321
355 26 336 323 22 114 172 207 250 219 55 32 9 1 350 313 277 270 277 302 271 234 127 288 279 289 142 179 211 224 228 238 243 246 252 257 266 278 283 286 292 290 284 291 295 288 281 282 286 294 307 316 320 319 317 318 321 322 320 320 319 318 318 318 319 320 320 319 319 320 320 321 320 320 320 320 320 321 320 321 321 320 321 320 320 321
9 17 342 26 42 0 321 304 307 320 344 8 152 329 328 314 282 263 270 280 270 211 162 256 276 292 280 217 242 240 230 241 257 259 257 260 271 284 288 287 291 294 283 279 290 289 280 279 283 289 304 313 317 317 315 317 319 318 317 317 316 315 315 315 317 317 318 318 318 319 320 320 320 319 319 319 320 321 321 321 321 321 321 320 320 320
114 67 356 0 247 271 290 291 304 321 297 275 235 270 273 284 284 257 262 278 289 299 265 235 251 282 291 298 305 296 266 251 264 270 267 271 278 285 293 293 292 294 285 275 288 291 279 276 280 289 304 314 316 315 314 316 318 316 315 315 314 314 314 315 316 317 318 318 319 319 319 319 319 318 318 319 319 320 320 320 320 321 320 320 320 320
156 59 24 265 257 256 266 279 288 292 276 270 242 219 232 247 248 228 249 268 294 302 278 239 248 283 291 300 309 309 297 269 269 278 277 280 284 286 293 297 296 296 290 281 289 292 281 275 281 294 308 314 314 312 313 315 316 314 314 314 314 315 315 315 316 317 318 318 318 318 318 317 317 317 317 318 318 319 319 320 320 319 319 319 319 319
164 351 83 198 269 270 262 266 267 258 263 259 227 220 226 225 221 222 239 242 218 241 270 285 292 287 285 294 304 305 290 270 274 283 283 282 285 289 294 297 297 297 294 286 285 286 280 277 284 299 310 312 310 310 312 313 313 312 312 313 314 315 316 315 315 316 317 317 316 315 315 315 315 316 317 317 318 319 319 319 318 318 317 317 318 317
224 180 116 180 281 281 258 223 226 254 262 249 227 224 227 228 234 237 239 239 233 242 263 281 286 283 280 287 295 290 271 267 273 281 284 286 289 294 297 298 299 300 297 288 279 278 277 280 291 304 310 309 309 309 310 311 311 310 311 312 313 314 315 314 313 315 315 314 314 314 314 315 316 317 318 318 318 318 318 318 317 317 317 317 317 317
327 49 94 140 273 277 239 188 227 259 264 260 243 224 223 238 248 243 237 240 243 249 261 273 279 282 277 265 271 274 272 275 278 282 287 290 293 296 297 298 301 301 297 289 283 280 281 289 301 307 308 307 308 308 309 309 308 308 310 311 312 313 313 312 313 314 315 315 315 315 315 315 316 316 317 318 318 318 318 318 318 318 318 317 318 318
5 43 116 127 290 264 161 228 279 277 265 264 255 233 222 225 236 239 232 228 236 256 273 277 275 282 295 290 281 283 285 286 286 288 292 294 294 295 297 299 301 298 293 291 288 286 291 300 304 305 305 306 307 307 308 308 307 308 309 310 312 313 311 312 313 313 314 315 314 314 314 314 314 315 317 318 318 319 319 319 319 319 319 318 318 318
32 248 149 0 296 244 130 311 303 290 264 263 251 228 218 216 229 247 247 239 237 247 268 274 270 286 305 305 294 291 294 293 291 292 294 295 294 295 297 299 299 294 290 290 290 291 297 302 303 303 304 306 307 307 308 307 306 307 308 309 311 311 310 311 312 312 313 312 312 312 312 312 313 314 317 318 318 319 319 320 320 321 319 319 318 318
166 273 72 88 285 280 332 320 301 257 281 319 67 166 195 208 228 245 253 252 244 241 246 256 268 284 295 294 290 294 297 295 294 293 292 292 291 293 298 300 296 290 289 289 290 294 299 302 302 303 305 306 307 307 307 306 305 305 307 308 309 309 309 309 310 311 311 310 310 311 311 311 313 315 318 319 318 319 321 321 322 322 320 319 319 319
154 163 112 134 274 277 325 333 314 291 329 54 139 161 178 205 237 256 266 260 249 249 252 254 267 278 282 284 289 292 294 294 293 291 288 288 287 288 294 296 291 289 289 289 291 297 301 302 302 303 305 306 306 305 305 304 303 303 305 306 307 307 307 307 309 309 309 309 310 311 311 312 314 317 319 319 320 321 322 322 323 323 322 320 320 320
186 134 157 240 251 268 323 1 311 307 315 203 181 185 189 223 250 277 282 261 232 238 251 257 269 275 277 287 291 292 295 296 292 288 285 284 282 284 286 287 286 288 289 290 294 300 303 303 303 304 305 306 305 304 304 303 301 302 303 303 304 305 305 306 308 309 309 309 310 311 312 313 315 318 319 320 320 321 322 323 324 324 323 321 320 320
198 154 202 267 200 281 307 267 250 292 301 262 173 182 187 226 248 292 299 278 228 229 252 260 266 268 281 295 298 297 301 299 292 287 285 282 285 288 285 283 285 288 291 295 300 303 304 305 304 304 306 306 305 304 303 302 300 300 301 302 304 305 305 306 307 308 307 308 309 310 312 314 315 317 318 319 320 321 322 324 325 325 324 322 321 320
83 261 248 264 238 159 299 289 286 296 295 205 149 163 142 114 133 160 288 285 246 218 232 241 254 270 291 302 304 305 308 302 292 289 296 305 307 301 290 287 291 294 297 301 303 304 305 305 304 305 306 306 304 304 302 300 299 298 299 302 304 305 306 306 306 307 307 307 308 310 312 314 315 316 317 318 319 320 321 323 325 325 324 322 322 321
73 13 155 211 256 192 228 282 273 255 275 292 150 166 153 139 151 162 280 290 218 177 201 224 259 279 295 303 305 308 308 297 288 295 307 313 311 302 293 294 298 300 301 301 301 302 304 304 303 304 305 304 304 303 301 299 298 297 299 302 303 304 306 306 306 306 306 307 308 310 312 314 315 316 317 317 318 319 321 323 325 325 324 324 324 323
123 36 179 219 245 190 186 252 243 240 266 200 153 166 158 146 149 209 288 286 156 176 211 241 272 284 294 301 303 303 291 276 283 294 301 304 303 297 294 295 298 300 300 298 298 300 302 301 301 302 303 303 303 301 300 298 297 298 300 301 302 305 306 304 304 305 306 306 308 309 311 313 314 315 316 316 316 317 320 322 324 324 324 324 324 324
153 18 288 241 255 200 199 252 265 259 261 207 164 158 147 145 172 243 280 296 160 214 246 265 279 286 296 302 302 294 283 281 283 290 296 298 295 293 292 292 295 298 299 297 297 299 300 300 300 301 302 303 302 300 301 299 298 299 301 300 302 306 305 303 304 305 306 307 308 309 311 313 313 314 314 314 314 315 318 321 322 323 323 324 324 324
177 180 198 219 245 198 197 247 272 279 250 161 145 146 152 167 244 255 289 317 304 288 289 284 282 288 295 299 297 290 285 287 288 290 293 293 292 293 292 290 292 296 299 300 298 299 299 299 299 301 302 302 301 300 301 300 298 300 300 300 304 308 304 302 304 305 305 307 308 309 310 311 312 312 312 312 312 313 316 320 321 322 323 323 324 324
166 199 235 217 192 182 224 249 283 306 218 154 143 137 165 205 268 290 302 307 299 293 295 290 288 293 294 293 291 286 285 290 292 291 290 290 291 292 292 292 290 294 299 301 299 299 300 298 298 300 301 301 300 301 301 300 299 299 299 301 306 306 302 302 304 304 305 306 307 308 309 310 310 311 310 311 310 311 314 318 320 321 323 323 324 324
181 195 246 234 189 190 241 206 217 348 151 163 172 213 230 245 273 286 292 294 292 292 294 293 296 300 296 290 288 288 290 292 293 291 289 290 292 292 293 294 290 292 299 302 300 300 300 298 299 300 300 301 302 302 302 301 299 299 300 303 306 303 301 302 302 303 305 306 306 307 308 309 309 310 310 310 310 310 312 316 318 320 322 324 325 324
192 186 227 271 211 212 253 251 260 289 272 228 238 262 270 275 283 285 282 282 286 290 294 297 300 301 297 291 290 291 292 293 293 291 288 290 292 292 294 295 291 294 299 300 300 301 300 298 298 298 299 301 302 303 303 302 300 300 301 304 304 302 301 302 302 303 305 306 306 307 308 308 309 310 310 309 309 309 312 314 317 320 323 325 325 324
209 187 177 275 230 259 270 260 259 270 276 271 269 274 279 284 288 286 281 280 284 289 295 298 298 298 298 296 295 295 294 295 294 289 285 288 290 292 296 296 293 296 300 300 300 301 300 298 297 296 298 301 302 303 304 303 301 301 302 304 303 302 302 301 302 304 305 305 306 307 307 308 309 310 311 310 309 309 311 313 316 318 322 325 325 325
212 189 201 234 241 291 273 245 241 266 279 283 284 285 286 288 289 288 285 284 286 291 295 295 296 299 301 302 301 298 297 296 293 287 285 290 292 295 299 299 297 298 299 300 301 301 299 297 295 296 298 300 302 304 304 302 302 302 302 302 301 301 301 301 302 305 305 305 307 307 307 309 310 311 312 311 310 310 310 312 314 316 320 325 325 324
169 171 212 236 222 234 260 269 278 283 286 289 289 286 287 292 294 294 291 288 289 294 297 298 300 303 305 306 304 300 297 294 290 286 288 291 294 297 300 301 301 300 299 300 302 301 299 296 296 297 299 300 303 305 303 302 303 302 300 300 300 300 300 301 303 305 305 306 306 307 308 310 311 312 312 311 311 311 310 311 313 314 316 322 325 325
144 170 208 231 241 252 263 276 286 289 292 296 295 293 296 300 301 299 297 295 298 302 303 303 305 307 308 308 309 305 299 294 288 286 287 290 294 299 301 301 301 300 299 300 301 300 298 297 297 298 299 301 304 306 304 304 304 303 301 300 299 299 299 301 303 304 305 306 306 307 309 310 311 312 312 311 311 311 310 311 313 313 315 319 324 327
170 206 192 182 268 265 260 278 294 300 299 299 302 304 304 304 303 301 301 303 305 306 306 307 309 310 310 310 310 304 297 295 293 290 288 290 296 301 302 301 301 299 299 299 299 299 299 298 298 298 298 301 305 305 306 306 306 305 303 301 299 299 299 302 303 304 305 306 306 307 309 310 311 311 311 311 312 311 310 311 311 312 314 315 319 324
210 220 199 197 240 255 265 281 291 289 284 292 301 304 302 301 302 302 304 307 308 307 308 310 311 311 311 312 311 301 292 296 299 295 293 295 299 302 303 302 300 298 297 298 299 300 301 300 298 298 299 302 305 306 307 307 307 307 306 302 300 299 300 302 303 304 306 307 306 308 309 309 311 311 310 311 312 311 311 312 312 311 311 311 313 318
Height
1527 1526 1531 1536 1537 1539 1539 1540 1539 1539 1539 1537 1535 1533 1531 1529 1524 1522 1525 1528 1531 1527 1522 1524 1527 1531 1535 1536 1538 1538 1537 1537 1538 1538 1539 1540 1541 1542 1543 1544 1545 1545 1546 1548 1548 1549 1549 1549 1550 1550 1550 1551 1550 1550 1550 1550 1550 1549 1549 1548 1548 1547 1546 1545 1544 1543 1541 1540 1539 1538 1537 1536 1535 1533 1532 1530 1529 1528 1526 1525 1523 1521 1520 1518 1516 1515
1527 1530 1538 1542 1542 1543 1543 1543 1542 1540 1539 1537 1534 1532 1530 1529 1525 1524 1528 1530 1531 1527 1523 1526 1529 1533 1539 1539 1540 1540 1539 1540 1541 1541 1542 1543 1544 1545 1547 1547 1548 1549 1550 1551 1551 1551 1552 1551 1552 1552 1551 1552 1551 1551 1551 1550 1550 1549 1549 1548 1547 1546 1544 1543 1542 1541 1540 1539 1538 1536 1535 1534 1532 1530 1529 1527 1526 1524 1523 1522 1521 1519 1517 1516 1514 1513
1528 1535 1543 1545 1545 1545 1543 1543 1542 1539 1538 1536 1533 1533 1530 1528 1526 1525 1528 1531 1531 1527 1523 1525 1527 1532 1541 1541 1542 1543 1543 1544 1544 1544 1545 1546 1547 1548 1550 1551 1551 1552 1553 1553 1553 1553 1554 1554 1553 1553 1553 1553 1552 1552 1552 1551 1550 1549 1548 1547 1546 1545 1543 1543 1542 1541 1540 1538 1537 1536 1534 1532 1531 1529 1527 1525 1524 1522 1521 1520 1518 1517 1515 1514 1512 1511
1532 1541 1546 1547 1546 1544 1541 1541 1541 1537 1535 1534 1534 1533 1529 1530 1530 1527 1527 1529 1531 1528 1525 1526 1526 1532 1541 1541 1544 1547 1546 1547 1548 1548 1549 1549 1551 1552 1553 1554 1554 1555 1555 1555 1555 1555 1555 1555 1555 1554 1554 1554 1553 1553 1552 1551 1550 1549 1548 1547 1545 1544 1543 1542 1541 1540 1538 1537 1535 1534 1532 1531 1529 1527 1526 1524 1522 1521 1519 1518 1516 1514 1513 1511 1510 1509
1540 1547 1548 1547 1545 1543 1540 1540 1541 1537 1533 1533 1536 1536 1533 1534 1535 1532 1529 1528 1527 1526 1529 1529 1520 1524 1539 1542 1543 1549 1548 1549 1551 1550 1552 1553 1554 1555 1556 1556 1557 1557 1557 1557 1557 1557 1557 1557 1556 1555 1555 1554 1554 1553 1552 1551 1550 1549 1548 1546 1545 1544 1543 1542 1541 1539 1537 1535 1533 1531 1530 1529 1527 1526 1524 1522 1520 1519 1517 1515 1514 1512 1511 1509 1508 1507
1545 1549 1548 1546 1544 1543 1541 1541 1545 1543 1536 1533 1538 1542 1541 1539 1538 1535 1532 1529 1522 1520 1528 1531 1516 1517 1538 1546 1545 1549 1550 1551 1553 1553 1554 1557 1557 1558 1558 1558 1559 1559 1559 1559 1559 1559 1558 1558 1557 1556 1556 1555 1554 1553 1552 1551 1550 1549 1547 1547 1546 1544 1543 1541 1539 1537 1535 1533 1531 1529 1527 1525 1524 1523 1521 1519 1517 1516 1514 1513 1512 1510 1509 1507 1506 1505
1548 1550 1549 1547 1545 1543 1541 1543 1548 1549 1540 1535 1541 1547 1545 1542 1539 1535 1534 1532 1524 1519 1526 1531 1523 1519 1532 1546 1548 1550 1552 1553 1555 1556 1557 1559 1559 1560 1561 1561 1561 1561 1561 1561 1560 1560 1560 1559 1558 1557 1556 1556 1555 1554 1552 1551 1550 1549 1548 1547 1546 1544 1542 1540 1538 1535 1533 1531 1529 1527 1525 1523 1521 1519 1518 1516 1514 1513 1512 1511 1509 1508 1507 1505 1504 1502
1551 1550 1549 1548 1545 1543 1544 1546 1549 1551 1544 1538 1544 1548 1544 1541 1539 1537 1537 1534 1528 1526 1525 1526 1528 1522 1522 1541 1552 1550 1552 1555 1556 1558 1559 1561 1562 1562 1563 1563 1563 1563 1563 1562 1562 1561 1561 1560 1559 1558 1557 1556 1555 1554 1552 1551 1549 1548 1547 1546 1544 1543 1541 1538 1536 1534 1531 1529 1527 1525 1523 1522 1520 1518 1516 1514 1512 1511 1510 1508 1507 1506 1505 1503 1502 1500
1555 1552 1553 1550 1546 1546 1549 1551 1551 1552 1547 1542 1545 1546 1543 1541 1540 1540 1537 1532 1531 1530 1523 1523 1531 1525 1519 1539 1553 1549 1552 1557 1557 1560 1561 1562 1564 1564 1565 1565 1565 1565 1564 1564 1563 1562 1561 1560 1560 1559 1558 1556 1555 1553 1551 1550 1549 1548 1547 1545 1543 1542 1540 1537 1535 1533 1530 1528 1526 1524 1522 1520 1518 1516 1514 1512 1511 1509 1508 1506 1505 1504 1503 1501 1500 1498
1556 1555 1556 1553 1552 1553 1553 1552 1552 1553 1548 1544 1546 1543 1541 1542 1541 1539 1535 1533 1533 1530 1528 1530 1535 1529 1522 1536 1549 1546 1549 1555 1558 1562 1563 1564 1566 1566 1567 1567 1566 1566 1565 1565 1564 1563 1562 1561 1560 1559 1557 1556 1554 1553 1551 1550 1549 1548 1547 1545 1542 1540 1538 1536 1534 1531 1529 1526 1525 1522 1520 1519 1516 1515 1513 1511 1509 1507 1506 1504 1503 1501 1500 1499 1497 1496
1557 1557 1557 1556 1558 1557 1554 1552 1553 1554 1549 1545 1544 1536 1534 1537 1538 1536 1534 1534 1529 1525 1534 1539 1538 1537 1531 1533 1546 1550 1552 1556 1560 1564 1565 1566 1567 1568 1569 1568 1568 1567 1566 1566 1564 1563 1562 1561 1560 1558 1557 1555 1554 1553 1551 1550 1549 1547 1545 1544 1541 1539 1537 1535 1532 1530 1528 1525 1523 1521 1519 1517 1515 1513 1511 1509 1507 1505 1504 1502 1501 1499 1498 1496 1495 1493
1556 1556 1557 1559 1561 1558 1554 1551 1552 1553 1548 1544 1540 1533 1529 1529 1530 1530 1528 1531 1529 1527 1538 1542 1539 1539 1534 1539 1554 1560 1561 1561 1563 1566 1566 1568 1569 1570 1571 1570 1569 1568 1567 1566 1565 1564 1562 1560 1559 1558 1556 1555 1553 1552 1550 1549 1547 1546 1544 1542 1540 1538 1536 1534 1531 1528 1526 1524 1521 1519 1517 1515 1513 1511 1509 1507 1505 1503 1502 1500 1498 1497 1495 1494 1492 1490
1553 1557 1559 1560 1560 1559 1554 1549 1549 1549 1546 1544 1540 1537 1536 1533 1535 1536 1531 1534 1536 1533 1538 1541 1542 1539 1539 1556 1569 1566 1567 1568 1568 1570 1570 1571 1572 1571 1572 1571 1570 1569 1567 1566 1564 1563 1562 1560 1559 1557 1556 1554 1552 1551 1549 1547 1545 1544 1542 1540 1539 1537 1534 1531 1529 1526 1524 1522 1520 1517 1515 1513 1511 1509 1507 1505 1503 1501 1499 1498 1496 1494 1492 1491 1489 1487
1551 1556 1558 1558 1559 1561 1558 1554 1555 1553 1550 1550 1548 1546 1548 1548 1554 1554 1543 1543 1545 1539 1538 1541 1545 1541 1541 1565 1578 1572 1574 1575 1573 1574 1573 1573 1573 1572 1572 1571 1569 1568 1566 1565 1563 1561 1560 1559 1557 1556 1554 1552 1550 1548 1547 1545 1543 1541 1540 1538 1536 1534 1531 1529 1526 1524 1522 1520 1518 1515 1513 1511 1509 1507 1505 1503 1501 1499 1497 1495 1493 1492 1490 1488 1486 1484
1559 1559 1561 1563 1565 1564 1563 1563 1565 1561 1556 1556 1555 1553 1554 1558 1566 1564 1553 1554 1555 1547 1542 1542 1546 1547 1551 1570 1581 1578 1578 1577 1576 1576 1575 1574 1574 1572 1571 1569 1568 1567 1564 1563 1561 1560 1558 1557 1555 1553 1552 1550 1548 1546 1545 1543 1541 1539 1538 1536 1534 1531 1528 1526 1524 1522 1520 1518 1516 1513 1511 1509 1507 1505 1503 1501 1499 1497 1495 1493 1491 1489 1487 1485 1483 1481
1563 1564 1568 1570 1571 1569 1567 1567 1567 1563 1558 1557 1556 1556 1559 1562 1567 1563 1557 1560 1562 1555 1548 1544 1550 1561 1571 1580 1581 1578 1578 1577 1577 1576 1574 1574 1572 1571 1570 1568 1566 1565 1563 1561 1559 1558 1556 1554 1553 1551 1549 1548 1546 1544 1542 1541 1539 1537 1535 1533 1531 1528 1526 1524 1522 1520 1518 1515 1514 1511 1509 1507 1505 1503 1501 1498 1496 1494 1492 1490 1488 1486 1484 1482 1480 1478
1565 1564 1569 1571 1571 1571 1571 1569 1567 1565 1562 1559 1560 1562 1564 1565 1565 1563 1560 1559 1561 1560 1549 1542 1552 1566 1574 1578 1577 1576 1576 1575 1575 1574 1572 1572 1570 1569 1568 1566 1564 1562 1561 1559 1557 1556 1554 1552 1550 1548 1547 1545 1544 1542 1540 1539 1537 1535 1533 1530 1528 1526 1524 1522 1519 1517 1515 1513 1511 1509 1507 1505 1502 1500 1498 1496 1494 1491 1489 1487 1485 1483 1481 1479 1477 1474
1574 1567 1567 1571 1570 1570 1572 1570 1568 1568 1566 1564 1567 1568 1565 1564 1563 1564 1568 1564 1562 1563 1550 1545 1561 1572 1572 1571 1572 1573 1573 1572 1571 1570 1569 1567 1566 1566 1564 1563 1562 1560 1558 1557 1555 1553 1551 1550 1548 1546 1545 1543 1541 1540 1538 1536 1535 1532 1530 1527 1525 1523 1521 1519 1517 1515 1513 1510 1508 1506 1504 1502 1500 1498 1496 1493 1491 1489 1486 1484 1482 1480 1478 1476 1474 1471
1580 1570 1566 1571 1572 1570 1571 1570 1568 1569 1569 1568 1572 1570 1565 1567 1566 1565 1571 1571 1570 1570 1558 1553 1564 1572 1571 1568 1567 1569 1568 1567 1567 1565 1564 1563 1561 1561 1561 1560 1559 1557 1556 1554 1552 1551 1549 1547 1546 1544 1543 1541 1539 1538 1536 1534 1532 1530 1528 1525 1523 1521 1518 1516 1514 1512 1510 1508 1505 1503 1501 1499 1497 1495 1493 1490 1488 1486 1483 1481 1479 1477 1475 1472 1470 1468
1582 1573 1568 1569 1571 1570 1569 1570 1572 1572 1571 1570 1571 1571 1569 1571 1571 1569 1572 1571 1571 1573 1567 1559 1556 1559 1565 1566 1563 1566 1565 1563 1563 1560 1559 1558 1558 1558 1558 1557 1556 1555 1554 1552 1550 1549 1547 1545 1543 1541 1540 1539 1537 1536 1534 1532 1530 1527 1525 1522 1520 1518 1516 1514 1511 1509 1507 1504 1502 1500 1498 1496 1494 1492 1489 1487 1485 1483 1480 1478 1476 1474 1471 1469 1467 1465
1580 1576 1573 1569 1568 1571 1573 1576 1578 1576 1576 1574 1573 1576 1577 1574 1571 1572 1573 1572 1572 1573 1572 1570 1560 1551 1557 1562 1561 1562 1561 1559 1559 1557 1557 1557 1556 1556 1556 1555 1554 1552 1552 1550 1548 1547 1544 1542 1541 1539 1538 1536 1535 1533 1530 1528 1526 1524 1521 1519 1517 1515 1512 1510 1508 1506 1503 1501 1499 1496 1494 1492 1490 1488 1486 1484 1482 1480 1478 1476 1473 1471 1469 1466 1464 1462
1581 1579 1578 1572 1569 1574 1579 1583 1583 1580 1581 1580 1579 1582 1582 1580 1576 1573 1573 1574 1576 1574 1571 1575 1567 1549 1549 1559 1559 1558 1559 1557 1557 1557 1556 1556 1556 1555 1554 1552 1551 1550 1549 1548 1546 1544 1542 1540 1539 1537 1536 1534 1531 1529 1527 1525 1523 1521 1518 1516 1513 1511 1509 1507 1505 1503 1500 1498 1496 1493 1491 1490 1488 1486 1484 1481 1479 1477 1475 1473 1471 1469 1466 1463 1461 1459
1586 1583 1580 1574 1574 1579 1582 1584 1584 1583 1581 1581 1583 1584 1584 1584 1581 1575 1572 1572 1575 1573 1571 1574 1569 1551 1548 1556 1557 1556 1557 1556 1556 1556 1555 1555 1554 1552 1551 1549 1548 1547 1546 1545 1543 1542 1540 1538 1536 1535 1533 1531 1528 1526 1525 1523 1521 1518 1516 1513 1511 1508 1506 1504 1502 1500 1497 1495 1493 1491 1489 1487 1485 1483 1481 1479 1477 1475 1473 1471 1468 1466 1463 1460 1458 1456
1586 1584 1581 1575 1574 1580 1584 1585 1585 1583 1581 1581 1584 1586 1586 1587 1585 1581 1579 1578 1575 1572 1571 1574 1566 1549 1548 1555 1554 1554 1556 1554 1554 1554 1553 1552 1551 1550 1548 1547 1545 1544 1542 1541 1540 1538 1537 1535 1533 1532 1530 1528 1526 1525 1523 1521 1518 1515 1513 1510 1508 1506 1503 1501 1499 1497 1495 1492 1490 1488 1486 1484 1482 1480 1478 1476 1474 1472 1470 1468 1465 1462 1460 1457 1454 1452
1584 1584 1583 1577 1574 1577 1579 1581 1581 1578 1580 1583 1585 1587 1587 1588 1590 1587 1584 1583 1577 1572 1576 1578 1563 1545 1548 1555 1553 1552 1553 1552 1552 1552 1551 1550 1549 1547 1546 1545 1543 1541 1539 1537 1536 1535 1534 1532 1531 1529 1527 1526 1524 1523 1521 1518 1515 1512 1510 1508 1505 1503 1501 1499 1497 1494 1492 1490 1487 1485 1483 1481 1479 1477 1475 1473 1471 1469 1467 1464 1462 1459 1456 1454 1451 1449
1586 1586 1584 1581 1580 1579 1577 1577 1577 1577 1581 1585 1587 1589 1588 1588 1589 1585 1581 1579 1574 1574 1579 1577 1559 1544 1547 1552 1550 1550 1550 1549 1549 1549 1548 1547 1546 1545 1544 1542 1541 1539 1536 1534 1533 1532 1531 1529 1528 1526 1525 1523 1521 1519 1517 1514 1512 1509 1507 1505 1503 1500 1498 1496 1494 1492 1489 1487 1485 1482 1480 1479 1477 1475 1473 1470 1468 1466 1463 1461 1458 1456 1453 1450 1448 1445
1589 1589 1588 1586 1584 1581 1579 1578 1578 1581 1583 1583 1587 1591 1590 1588 1588 1584 1579 1574 1572 1575 1574 1568 1561 1553 1548 1547 1547 1546 1546 1546 1546 1545 1545 1544 1543 1542 1541 1539 1538 1536 1534 1532 1529 1529 1528 1526 1525 1523 1521 1520 1518 1515 1513 1510 1508 1506 1503 1502 1500 1497 1495 1493 1491 1488 1486 1484 1482 1480 1478 1476 1474 1472 1470 1467 1465 1462 1460 1457 1455 1452 1450 1447 1444 1442
1586 1587 1592 1593 1587 1582 1581 1580 1581 1584 1584 1582 1586 1590 1588 1587 1588 1585 1580 1574 1575 1577 1565 1555 1560 1559 1548 1545 1546 1544 1544 1544 1543 1543 1542 1541 1540 1539 1538 1536 1535 1533 1531 1529 1526 1525 1524 1523 1521 1520 1518 1516 1514 1511 1509 1507 1504 1502 1500 1498 1496 1494 1492 1489 1487 1485 1483 1481 1479 1477 1475 1473 1471 1469 1466 1464 1462 1459 1456 1454 1451 1449 1446 1444 1441 1438
1586 1586 1595 1597 1590 1584 1583 1582 1582 1584 1583 1582 1585 1586 1584 1584 1585 1584 1579 1575 1577 1575 1560 1551 1557 1557 1547 1544 1543 1542 1543 1542 1541 1541 1540 1538 1537 1536 1534 1532 1531 1529 1527 1526 1524 1522 1520 1519 1518 1516 1514 1512 1510 1508 1506 1503 1501 1499 1497 1495 1493 1491 1489 1486 1484 1482 1480 1478 1476 1474 1472 1470 1468 1466 1463 1461 1458 1456 1453 1451 1448 1446 1443 1441 1438 1435
1587 1587 1595 1599 1592 1584 1581 1582 1584 1584 1583 1583 1583 1582 1580 1580 1580 1579 1576 1573 1573 1570 1561 1556 1557 1552 1545 1543 1541 1541 1541 1540 1539 1538 1537 1535 1534 1532 1531 1529 1526 1525 1523 1522 1520 1518 1517 1516 1514 1512 1511 1508 1506 1504 1502 1499 1497 1495 1493 1491 1489 1487 1485 1483 1481 1479 1477 1475 1473 1471 1469 1466 1464 1462 1460 1457 1455 1452 1450 1447 1445 1442 1440 1437 1435 1432
1587 1588 1596 1601 1593 1581 1578 1583 1584 1583 1581 1579 1577 1577 1578 1578 1577 1575 1573 1571 1571 1567 1561 1560 1557 1549 1541 1540 1540 1539 1539 1538 1536 1534 1532 1531 1530 1528 1526 1524 1522 1520 1519 1518 1516 1515 1513 1512 1510 1508 1506 1504 1502 1500 1498 1496 1494 1492 1490 1488 1486 1484 1482 1480 1478 1476 1474 1472 1469 1467 1465 1463 1461 1458 1456 1454 1451 1449 1447 1444 1441 1438 1436 1433 1430 1428
1589 1591 1596 1598 1586 1574 1577 1582 1579 1579 1582 1580 1575 1573 1574 1575 1572 1569 1568 1567 1566 1564 1561 1560 1555 1543 1536 1537 1538 1537 1536 1535 1532 1531 1529 1527 1526 1525 1523 1520 1518 1516 1515 1514 1512 1511 1510 1508 1506 1504 1502 1500 1498 1496 1494 1492 1490 1488 1486 1484 1482 1481 1479 1477 1475 1472 1470 1468 1466 1464 1462 1459 1457 1455 1453 1450 1448 1445 1443 1440 1438 1435 1432 1429 1426 1424
1597 1592 1592 1595 1583 1570 1576 1580 1577 1579 1575 1566 1563 1563 1563 1567 1566 1563 1562 1561 1560 1560 1559 1555 1545 1536 1534 1537 1535 1533 1532 1531 1530 1528 1527 1524 1522 1521 1519 1516 1514 1512 1511 1510 1509 1508 1507 1504 1503 1500 1498 1496 1494 1492 1490 1488 1486 1484 1482 1481 1479 1477 1475 1473 1471 1469 1467 1465 1463 1461 1459 1456 1454 1452 1450 1447 1445 1442 1440 1437 1434 1431 1428 1425 1423 1420
1600 1592 1591 1596 1585 1574 1577 1578 1574 1571 1557 1546 1551 1555 1556 1560 1562 1560 1558 1555 1554 1554 1551 1546 1538 1534 1536 1535 1533 1531 1529 1528 1527 1525 1523 1522 1519 1516 1514 1513 1511 1509 1508 1507 1505 1504 1503 1500 1498 1496 1494 1492 1489 1487 1486 1484 1482 1480 1478 1477 1475 1473 1472 1469 1468 1466 1464 1462 1460 1458 1455 1453 1450 1448 1446 1444 1441 1439 1436 1433 1430 1428 1424 1421 1419 1416
1594 1593 1596 1600 1592 1582 1581 1578 1567 1552 1543 1547 1555 1556 1556 1558 1560 1559 1553 1548 1549 1547 1543 1540 1537 1534 1535 1534 1532 1530 1527 1525 1523 1520 1519 1518 1516 1513 1511 1509 1507 1506 1504 1503 1501 1500 1498 1496 1494 1492 1490 1488 1485 1483 1482 1480 1478 1476 1475 1473 1472 1470 1468 1466 1464 1462 1460 1458 1457 1454 1452 1449 1447 1445 1442 1440 1437 1435 1432 1429 1426 1424 1421 1417 1415 1412
1590 1591 1594 1598 1594 1584 1581 1582 1570 1548 1542 1552 1556 1555 1558 1559 1559 1558 1548 1537 1538 1541 1539 1536 1534 1533 1533 1532 1530 1528 1524 1521 1518 1515 1514 1513 1511 1510 1508 1505 1504 1502 1501 1499 1497 1495 1493 1491 1489 1487 1485 1483 1481 1479 1478 1476 1474 1473 1471 1470 1468 1466 1465 1463 1461 1459 1457 1455 1453 1451 1448 1446 1443 1441 1438 1436 1433 1431 1428 1426 1423 1420 1417 1413 1411 1408
1590 1590 1589 1590 1591 1587 1582 1580 1572 1555 1545 1549 1553 1554 1556 1556 1555 1558 1551 1535 1531 1536 1536 1533 1532 1531 1531 1529 1527 1525 1522 1518 1512 1508 1508 1508 1506 1505 1503 1501 1500 1498 1496 1495 1492 1490 1489 1487 1485 1483 1481 1479 1477 1475 1474 1472 1470 1469 1467 1466 1464 1462 1461 1459 1457 1455 1453 1451 1449 1447 1445 1443 1440 1437 1435 1432 1430 1427 1425 1422 1419 1417 1414 1410 1407 1405
1590 1589 1586 1584 1588 1591 1587 1580 1575 1561 1544 1541 1549 1553 1553 1554 1554 1559 1557 1539 1527 1530 1532 1530 1530 1530 1528 1526 1524 1522 1520 1514 1506 1502 1503 1503 1501 1499 1497 1496 1494 1493 1491 1490 1488 1486 1484 1482 1480 1479 1477 1475 1473 1471 1470 1468 1466 1464 1463 1461 1460 1458 1456 1455 1453 1451 1450 1448 1446 1444 1441 1439 1437 1434 1431 1429 1427 1424 1422 1419 1416 1413 1410 1407 1404 1401
1590 1590 1589 1587 1587 1590 1589 1585 1583 1570 1547 1540 1549 1552 1553 1555 1554 1557 1555 1536 1522 1527 1530 1528 1528 1527 1525 1524 1522 1520 1520 1513 1501 1497 1500 1501 1498 1495 1493 1491 1489 1488 1486 1485 1483 1482 1480 1478 1476 1475 1473 1471 1469 1468 1466 1464 1462 1461 1459 1457 1456 1454 1452 1451 1449 1448 1446 1444 1442 1440 1438 1436 1433 1430 1428 1425 1423 1421 1418 1416 1413 1410 1407 1404 1400 1397
1589 1589 1589 1587 1585 1588 1590 1586 1580 1566 1548 1543 1549 1551 1552 1554 1554 1558 1549 1527 1520 1527 1527 1524 1525 1523 1521 1522 1519 1517 1517 1511 1500 1495 1497 1498 1496 1494 1491 1487 1485 1484 1482 1480 1479 1477 1476 1474 1472 1471 1469 1467 1466 1464 1462 1460 1458 1457 1455 1453 1452 1450 1449 1447 1445 1444 1442 1440 1439 1437 1434 1432 1430 1427 1425 1422 1420 1418 1415 1412 1410 1407 1404 1401 1398 1395
1590 1593 1594 1591 1587 1589 1591 1586 1574 1557 1545 1544 1548 1549 1551 1553 1555 1552 1538 1521 1520 1525 1523 1522 1523 1519 1518 1519 1516 1512 1510 1506 1500 1495 1494 1494 1492 1490 1489 1485 1482 1480 1478 1477 1475 1473 1472 1470 1468 1466 1465 1463 1462 1460 1458 1456 1454 1452 1451 1449 1448 1446 1445 1443 1441 1440 1438 1436 1435 1433 1431 1429 1426 1424 1421 1419 1416 1414 1412 1409 1406 1404 1400 1397 1394 1392
1587 1591 1594 1593 1588 1586 1590 1589 1574 1552 1541 1543 1547 1549 1552 1552 1546 1535 1523 1518 1520 1521 1519 1519 1518 1515 1514 1514 1511 1508 1503 1500 1498 1494 1491 1490 1488 1485 1484 1483 1479 1475 1473 1472 1470 1469 1467 1465 1463 1462 1461 1460 1458 1456 1454 1452 1450 1448 1447 1445 1444 1443 1441 1439 1437 1436 1434 1433 1431 1429 1427 1425 1423 1421 1418 1416 1413 1410 1408 1406 1403 1400 1397 1394 1391 1388
1581 1580 1579 1581 1580 1581 1589 1589 1568 1544 1536 1541 1545 1547 1549 1544 1532 1522 1518 1518 1517 1516 1516 1514 1512 1511 1510 1506 1504 1502 1498 1495 1493 1490 1487 1486 1484 1481 1480 1478 1475 1472 1469 1468 1466 1464 1463 1461 1459 1458 1457 1456 1454 1452 1451 1448 1446 1444 1443 1441 1440 1439 1437 1435 1434 1432 1430 1429 1427 1426 1424 1422 1420 1418 1415 1413 1410 1407 1405 1403 1400 1397 1394 1391 1388 1384
1579 1574 1569 1571 1574 1575 1577 1569 1548 1533 1535 1540 1539 1538 1538 1531 1524 1521 1520 1517 1514 1513 1513 1510 1507 1507 1506 1502 1500 1497 1494 1491 1489 1486 1483 1481 1479 1477 1475 1473 1472 1468 1465 1464 1462 1460 1459 1457 1454 1453 1452 1451 1450 1449 1447 1445 1442 1440 1439 1438 1437 1435 1433 1431 1430 1428 1426 1425 1423 1422 1420 1418 1416 1414 1412 1409 1407 1404 1401 1399 1397 1394 1391 1388 1385 1381
1569 1567 1564 1565 1567 1565 1558 1546 1535 1531 1535 1537 1533 1530 1528 1525 1523 1522 1519 1515 1512 1511 1509 1506 1504 1503 1502 1500 1496 1492 1489 1487 1484 1481 1479 1476 1474 1473 1471 1468 1467 1464 1461 1460 1458 1456 1454 1452 1450 1449 1448 1447 1446 1444 1442 1441 1438 1436 1435 1434 1433 1431 1429 1427 1425 1424 1423 1421 1419 1418 1416 1414 1413 1411 1409 1406 1403 1400 1398 1395 1393 1390 1388 1385 1382 1378
1563 1565 1566 1563 1562 1558 1547 1536 1533 1533 1531 1531 1530 1527 1524 1522 1520 1518 1516 1513 1511 1508 1507 1505 1502 1499 1498 1496 1492 1488 1485 1482 1479 1477 1475 1472 1470 1468 1466 1464 1462 1459 1457 1455 1453 1452 1450 1448 1446 1445 1443 1443 1442 1441 1439 1437 1434 1432 1431 1430 1429 1426 1425 1423 1421 1420 1419 1417 1416 1414 1412 1410 1409 1407 1405 1403 1400 1397 1395 1392 1389 1387 1384 1382 1379 1376
1561 1564 1564 1561 1560 1557 1542 1530 1531 1532 1528 1526 1526 1522 1520 1519 1517 1515 1513 1510 1507 1506 1504 1502 1500 1497 1494 1492 1488 1484 1480 1478 1475 1472 1469 1468 1465 1462 1460 1459 1456 1454 1453 1451 1449 1448 1446 1443 1442 1440 1439 1439 1438 1437 1435 1433 1431 1429 1428 1426 1425 1422 1420 1419 1417 1416 1415 1413 1412 1410 1408 1406 1404 1402 1401 1399 1397 1394 1392 1389 1386 1383 1381 1379 1376 1373
1559 1563 1561 1556 1556 1552 1538 1527 1527 1527 1523 1522 1521 1518 1516 1515 1512 1511 1510 1507 1505 1503 1500 1498 1497 1494 1490 1487 1485 1480 1476 1474 1472 1468 1464 1463 1460 1458 1456 1454 1451 1450 1448 1446 1445 1443 1441 1439 1438 1436 1435 1434 1433 1433 1431 1429 1428 1426 1424 1422 1421 1419 1416 1415 1413 1412 1410 1409 1407 1406 1404 1402 1400 1398 1396 1394 1393 1391 1388 1386 1383 1380 1378 1376 1373 1370
1559 1560 1555 1551 1550 1544 1534 1528 1526 1522 1515 1514 1516 1514 1513 1511 1509 1507 1506 1504 1501 1499 1496 1494 1492 1489 1486 1483 1480 1476 1472 1469 1467 1465 1461 1458 1456 1454 1452 1449 1447 1445 1443 1442 1441 1439 1437 1436 1434 1432 1431 1430 1429 1428 1427 1425 1424 1422 1420 1419 1417 1415 1413 1411 1410 1408 1407 1405 1404 1402 1400 1398 1396 1394 1392 1390 1388 1386 1385 1383 1380 1377 1374 1372 1371 1368
1556 1552 1548 1550 1547 1538 1529 1526 1525 1522 1515 1511 1512 1512 1510 1508 1506 1503 1501 1500 1498 1496 1493 1490 1487 1484 1483 1479 1476 1473 1468 1464 1463 1461 1457 1454 1452 1450 1447 1445 1443 1440 1439 1438 1436 1434 1433 1432 1430 1428 1427 1426 1425 1424 1422 1421 1420 1418 1417 1415 1413 1410 1409 1407 1405 1404 1403 1401 1400 1398 1396 1394 1392 1391 1389 1386 1384 1382 1380 1379 1378 1375 1371 1368 1366 1365
1545 1541 1540 1542 1537 1528 1522 1521 1524 1523 1516 1510 1510 1510 1508 1505 1503 1501 1498 1497 1495 1493 1490 1487 1483 1480 1477 1474 1473 1471 1465 1461 1459 1456 1453 1450 1448 1446 1443 1441 1439 1436 1435 1434 1432 1430 1429 1428 1426 1425 1423 1422 1421 1419 1418 1416 1415 1414 1413 1411 1408 1406 1405 1403 1401 1400 1398 1397 1396 1394 1392 1390 1389 1387 1385 1383 1380 1377 1374 1372 1372 1372 1371 1367 1364 1362